カタログに戻る

STARLINK-3699

運用中通信VLEO
NORAD 51966·PAYLOAD·🇺🇸 United States

打ち上げ Mar 9, 2022 から Cape Canaveral Space Force Station

Loading…

次のパス (今後24時間)

TLE

最新Source: CelesTrak SupGP

元期: Sep 14, 2026, 20:59 UTC

1 51966C 22025L   26257.87479167  .00038842  00000+0  12481-2 0  2578
2 51966  53.1575 236.5627 0001680  78.0125  37.1750 15.31705833    14

AllMySatでSTARLINK-3699をリアルタイム追跡

Download on the App Store